Home   Weather   Kvernaland   Past weeks

Flag for Norway Past Weather in Kvernaland, Norway — Yesterday and Last 2 Weeks

Now
36 °F

Passing clouds.


Feels Like: 36 °F
Forecast: 44 / 50 °F
Wind: No wind

Location: Stavanger / Sola

Current Time: Dec 6, 2016 at 4:08:15 am

Latest Report: Dec 6, 2016 at 2:50 am


Visibility: N/A

Pressure: 30.27 "Hg

Humidity: 87%

Dew Point: 32 °F

Location of KvernalandLocation

Past Weather in Kvernaland — Graph

°F

Kvernaland Temperature Yesterday

Maximum temperature yesterday: 45 °F (at 12:20 am)
Minimum temperature yesterday: 41 °F (at 10:20 pm)
Average temperature yesterday: 44 °F

High & Low Weather Summary for the Past Weeks

 TemperatureHumidityPressure
High50 °F (Nov 22, 12:20 pm)100% (Nov 23, 2:50 am)30.51 "Hg (Nov 23, 2:50 am)
Low25 °F (Nov 28, 4:50 am)61% (Nov 26, 3:50 pm)29.33 "Hg (Nov 21, 2:50 am)
Average41 °F85%30.09 "Hg
* Reported Nov 21 2:50 am — Dec 6 2:50 am, Kvernaland, Weather by CustomWeather, © 2016

Note: Actual official high and low records may vary slightly from our data, if they occured in-between our weather recording intervals... More about our weather records

Advertising

Kvernaland Weather History for the Previous 24 Hours

Scroll right to see more
 ConditionsComfort  
Time TempWeatherWind HumidityBarometerVisibility
2:50 am
Tue, Dec 6
36 °FPassing clouds.No wind87%30.27 "HgN/A
1:50 am36 °FPassing clouds.3 mph87%30.27 "HgN/A
12:50 am39 °FPassing clouds.6 mph81%30.24 "HgN/A
12:20 am39 °FPassing clouds.9 mph87%30.24 "HgN/A
11:50 pm
Mon, Dec 5
41 °FPassing clouds.12 mph81%30.24 "HgN/A
11:20 pm41 °FPassing clouds.8 mph81%30.24 "HgN/A
10:50 pm41 °FPassing clouds.9 mph81%30.24 "HgN/A
10:20 pm41 °FPassing clouds.8 mph87%30.24 "HgN/A
9:50 pm43 °FPassing clouds.13 mph81%30.24 "HgN/A
9:20 pm43 °FPassing clouds.8 mph87%30.24 "HgN/A
8:50 pm45 °FPassing clouds.7 mph87%30.21 "HgN/A
8:20 pm45 °FPartly cloudy.10 mph93%30.21 "HgN/A
7:50 pm45 °FPartly cloudy.10 mph93%30.21 "HgN/A
7:20 pm45 °FFog.17 mph100%30.21 "Hg3 mi
6:50 pm45 °FPartly cloudy.17 mph93%30.21 "Hg5 mi
6:20 pm45 °FPartly cloudy.16 mph93%30.21 "HgN/A
5:50 pm45 °FPartly cloudy.17 mph93%30.21 "HgN/A
5:20 pm45 °FPartly cloudy.16 mph93%30.21 "HgN/A
4:50 pm45 °FPassing clouds.14 mph87%30.21 "HgN/A
4:20 pm45 °FPartly cloudy.15 mph87%30.21 "HgN/A
3:50 pm45 °FPartly cloudy.14 mph87%30.21 "HgN/A
3:20 pm45 °FBroken clouds.15 mph87%30.21 "HgN/A
2:50 pm45 °FBroken clouds.14 mph87%30.21 "HgN/A
2:20 pm45 °FPartly sunny.16 mph87%30.21 "HgN/A
1:50 pm45 °FBroken clouds.15 mph87%30.21 "HgN/A
1:20 pm45 °FScattered showers. Broken clouds.16 mph87%30.21 "HgN/A
12:50 pm45 °FBroken clouds.15 mph87%30.21 "HgN/A
12:20 pm45 °FBroken clouds.17 mph81%30.21 "HgN/A
11:50 am45 °FBroken clouds.18 mph81%30.21 "HgN/A
11:20 am45 °FBroken clouds.18 mph81%30.21 "HgN/A
10:50 am45 °FBroken clouds.18 mph81%30.21 "HgN/A
10:20 am45 °FBroken clouds.18 mph87%30.21 "HgN/A
9:50 am45 °FPartly sunny.20 mph87%30.21 "HgN/A
9:20 am45 °FMostly cloudy.16 mph81%30.21 "HgN/A
8:50 am45 °FPartly cloudy.18 mph81%30.21 "HgN/A
8:20 am45 °FPartly cloudy.15 mph81%30.21 "HgN/A
7:50 am45 °FPartly cloudy.15 mph87%30.21 "HgN/A
7:20 am45 °FPartly cloudy.14 mph87%30.21 "HgN/A
6:50 am45 °FPartly cloudy.13 mph87%30.21 "HgN/A
6:20 am43 °FPartly cloudy.12 mph87%30.21 "HgN/A
5:50 am45 °FPartly cloudy.14 mph87%30.21 "HgN/A
4:50 am43 °FPassing clouds.13 mph93%30.24 "HgN/A
Weather by CustomWeather, © 2016

See weather overviewHow to use our weather pages